TimeCDT,TemperatureF,Dew PointF,Humidity,Sea Level PressureIn,VisibilityMPH,Wind Direction,Wind SpeedMPH,Gust SpeedMPH,PrecipitationIn,Events,Conditions,WindDirDegrees,DateUTC
12:15 AM,47.8,39.2,72,30.01,7.0,NNE,20.7,28.8,0.01,Rain-Thunderstorm,Heavy Thunderstorms and Rain,20,2013-05-01 05:15:00
12:35 AM,46.6,40.5,79,30.01,7.0,NNE,18.4,26.5,0.03,Rain-Thunderstorm,Light Thunderstorms and Rain,20,2013-05-01 05:35:00
1:15 AM,45.5,40.1,81,30.07,7.0,North,15.0,23.0,0.02,Rain-Thunderstorm,Light Thunderstorms and Rain,350,2013-05-01 06:15:00
1:35 AM,45.0,40.5,84,30.04,10.0,North,19.6,26.5,0.02,Rain-Thunderstorm,Light Thunderstorms and Rain,10,2013-05-01 06:35:00
1:55 AM,45.5,41.0,84,30.08,10.0,North,19.6,29.9,0.02,Rain-Thunderstorm,Light Thunderstorms and Rain,360,2013-05-01 06:55:00
2:15 AM,43.9,40.1,87,30.06,1.8,NNE,20.7,31.1,0.05,Thunderstorm,Unknown,20,2013-05-01 07:15:00
2:35 AM,43.7,40.1,87,30.07,4.0,North,19.6,28.8,0.08,Rain-Thunderstorm,Light Thunderstorms and Rain,10,2013-05-01 07:35:00
2:55 AM,43.3,39.6,87,30.11,10.0,North,17.3,28.8,0.09,Rain,Light Rain,360,2013-05-01 07:55:00
3:15 AM,42.8,39.2,87,30.07,7.0,NNE,25.3,28.8,N/A,Rain,Rain,20,2013-05-01 08:15:00
3:35 AM,42.6,39.0,87,30.07,5.0,NNE,21.9,26.5,0.01,Rain-Thunderstorm,Thunderstorms and Rain,30,2013-05-01 08:35:00
3:55 AM,42.1,38.7,88,30.09,4.0,NNE,18.4,-,0.03,Rain-Thunderstorm,Light Thunderstorms and Rain,20,2013-05-01 08:55:00
4:15 AM,42.4,39.0,88,30.07,4.0,NNE,20.7,29.9,0.01,Rain-Thunderstorm,Light Thunderstorms and Rain,30,2013-05-01 09:15:00
4:35 AM,42.8,38.7,85,30.10,7.0,NNE,19.6,26.5,0.01,Rain-Thunderstorm,Light Thunderstorms and Rain,20,2013-05-01 09:35:00
4:55 AM,42.3,38.8,88,30.14,5.0,North,15.0,20.7,0.02,Rain-Thunderstorm,Thunderstorms and Rain,10,2013-05-01 09:55:00
5:15 AM,41.4,38.1,88,30.16,4.0,North,21.9,28.8,0.01,Rain-Thunderstorm,Thunderstorms and Rain,10,2013-05-01 10:15:00
5:35 AM,39.2,36.0,88,30.15,2.5,NNE,13.8,24.2,0.05,Rain,Rain,20,2013-05-01 10:35:00
5:55 AM,37.6,34.7,89,30.19,4.0,North,15.0,25.3,0.06,Thunderstorm,Overcast,350,2013-05-01 10:55:00
6:15 AM,35.2,32.5,90,30.19,2.5,North,12.7,-,0.01,Snow,Light Snow,350,2013-05-01 11:15:00
6:35 AM,34.9,32.5,91,30.21,3.0,North,9.2,17.3,0.03,Snow,Light Snow,350,2013-05-01 11:35:00
6:55 AM,34.9,32.9,92,30.20,4.0,North,11.5,18.4,0.05,Snow,Light Snow,360,2013-05-01 11:55:00
7:15 AM,35.2,32.9,91,30.21,7.0,North,11.5,19.6,N/A,Snow,Light Snow,360,2013-05-01 12:15:00
7:35 AM,35.1,32.7,91,30.24,2.0,North,12.7,16.1,N/A,Snow-Thunderstorm,Light Thunderstorms and Snow,350,2013-05-01 12:35:00
7:55 AM,34.7,32.5,92,30.24,1.8,North,13.8,17.3,0.02,Snow,Light Snow,360,2013-05-01 12:55:00
8:15 AM,34.9,32.7,92,30.24,2.0,North,13.8,18.4,N/A,Snow,Light Snow,360,2013-05-01 13:15:00
8:35 AM,34.7,32.5,92,30.25,1.5,North,11.5,17.3,0.01,Snow,Light Snow,10,2013-05-01 13:35:00
8:55 AM,34.9,32.7,92,30.25,1.8,North,15.0,-,0.01,Snow,Light Snow,10,2013-05-01 13:55:00
9:15 AM,35.1,32.5,91,30.25,4.0,North,16.1,-,N/A,Snow-Thunderstorm,Light Thunderstorms and Snow,360,2013-05-01 14:15:00
9:35 AM,35.1,32.4,90,30.25,3.0,North,18.4,23.0,N/A,Snow,Light Snow,10,2013-05-01 14:35:00
9:55 AM,35.1,32.2,89,30.27,3.0,North,18.4,24.2,N/A,Snow,Light Snow,360,2013-05-01 14:55:00
10:15 AM,34.9,32.2,90,30.27,1.5,North,17.3,23.0,0.01,Snow,Light Snow,360,2013-05-01 15:15:00
10:35 AM,34.7,32.0,90,30.28,1.5,North,21.9,27.6,0.01,,Overcast,360,2013-05-01 15:35:00
10:55 AM,34.2,31.6,90,30.28,1.8,North,18.4,31.1,0.01,,Overcast,10,2013-05-01 15:55:00
11:15 AM,34.3,32.0,91,30.30,1.8,North,17.3,24.2,N/A,Snow,Light Snow,360,2013-05-01 16:15:00
11:35 AM,34.3,32.0,91,30.30,2.0,North,20.7,25.3,N/A,Snow,Light Snow,360,2013-05-01 16:35:00
11:55 AM,34.7,32.0,90,30.30,1.5,North,17.3,23.0,N/A,Snow,Light Snow,360,2013-05-01 16:55:00
12:15 PM,35.1,32.0,89,30.31,2.5,North,19.6,27.6,N/A,Snow,Light Snow,360,2013-05-01 17:15:00
12:35 PM,35.4,32.0,87,30.32,5.0,North,18.4,26.5,N/A,Rain,Light Rain,350,2013-05-01 17:35:00
12:55 PM,35.8,31.6,85,30.32,10.0,North,16.1,24.2,N/A,,Overcast,360,2013-05-01 17:55:00
1:15 PM,36.5,31.5,82,30.31,10.0,North,19.6,26.5,N/A,,Overcast,360,2013-05-01 18:15:00
1:35 PM,36.5,31.1,81,30.33,10.0,North,18.4,27.6,N/A,,Overcast,350,2013-05-01 18:35:00
1:55 PM,36.5,31.1,81,30.33,10.0,North,21.9,26.5,N/A,,Overcast,360,2013-05-01 18:55:00
2:15 PM,37.0,31.6,81,30.34,10.0,North,17.3,25.3,N/A,,Overcast,360,2013-05-01 19:15:00
2:35 PM,37.4,31.8,80,30.33,10.0,North,19.6,23.0,N/A,,Overcast,360,2013-05-01 19:35:00
2:55 PM,37.6,31.3,78,30.35,10.0,North,15.0,-,N/A,,Overcast,360,2013-05-01 19:55:00
3:15 PM,37.6,31.6,79,30.37,10.0,North,12.7,23.0,N/A,,Overcast,360,2013-05-01 20:15:00
3:35 PM,37.9,31.6,78,30.37,10.0,North,13.8,21.9,N/A,Thunderstorm,Overcast,360,2013-05-01 20:35:00
3:55 PM,38.1,31.6,77,30.38,10.0,North,12.7,18.4,N/A,,Overcast,350,2013-05-01 20:55:00
4:15 PM,37.9,31.6,78,30.37,10.0,North,15.0,19.6,N/A,,Overcast,360,2013-05-01 21:15:00
4:35 PM,37.9,32.0,79,30.39,10.0,North,13.8,20.7,N/A,,Overcast,350,2013-05-01 21:35:00
4:55 PM,37.0,32.0,82,30.39,10.0,North,16.1,23.0,N/A,,Light Drizzle,350,2013-05-01 21:55:00
5:15 PM,36.9,32.9,86,30.39,10.0,North,16.1,19.6,N/A,,Overcast,360,2013-05-01 22:15:00
5:35 PM,36.7,32.9,86,30.39,7.0,NNE,16.1,21.9,N/A,,Drizzle,20,2013-05-01 22:35:00
5:55 PM,37.4,33.3,85,30.40,10.0,NNE,11.5,-,N/A,Rain,Light Rain,20,2013-05-01 22:55:00
6:15 PM,38.5,32.2,78,30.39,10.0,North,11.5,-,N/A,,Overcast,10,2013-05-01 23:15:00
6:35 PM,39.2,31.1,73,30.41,10.0,North,11.5,-,N/A,,Overcast,360,2013-05-01 23:35:00
6:55 PM,39.2,31.3,73,30.41,10.0,North,10.4,16.1,N/A,,Overcast,360,2013-05-01 23:55:00
7:15 PM,39.4,31.5,73,30.42,10.0,North,10.4,-,N/A,,Overcast,360,2013-05-02 00:15:00
7:35 PM,39.6,30.2,69,30.41,10.0,North,12.7,17.3,N/A,,Overcast,10,2013-05-02 00:35:00
7:55 PM,39.4,30.0,69,30.40,10.0,NNE,13.8,-,N/A,,Overcast,20,2013-05-02 00:55:00
8:35 PM,39.4,30.6,71,30.41,10.0,North,10.4,-,N/A,,Overcast,360,2013-05-02 01:35:00
8:55 PM,39.2,30.7,72,30.42,10.0,North,10.4,-,N/A,,Overcast,360,2013-05-02 01:55:00
9:35 PM,39.0,30.7,72,30.42,10.0,North,10.4,-,N/A,,Mostly Cloudy,350,2013-05-02 02:35:00
9:55 PM,39.0,30.4,71,30.44,10.0,North,10.4,-,N/A,,Mostly Cloudy,350,2013-05-02 02:55:00
10:15 PM,38.8,30.4,72,30.46,10.0,North,8.1,-,N/A,,Overcast,350,2013-05-02 03:15:00
10:35 PM,39.2,30.2,70,30.47,10.0,North,9.2,-,N/A,,Overcast,350,2013-05-02 03:35:00
10:55 PM,39.0,29.8,70,30.48,10.0,North,9.2,-,N/A,,Overcast,350,2013-05-02 03:55:00
11:15 PM,39.0,29.7,69,30.49,10.0,NNW,8.1,-,N/A,,Overcast,340,2013-05-02 04:15:00
11:35 PM,38.8,30.0,71,30.49,10.0,NNW,8.1,-,N/A,,Overcast,340,2013-05-02 04:35:00
11:55 PM,38.7,30.2,72,30.50,10.0,NNW,9.2,-,N/A,,Overcast,340,2013-05-02 04:55:00